Regional Weather Roundup
Issued by NWS

Home | Current Version | Previous Version | Graphics & Text | Print | Product List | Glossary Off
Versions: 1 2 3 4 5 6 7 8 9 10 11 12 13 14 15 16 17 18 19 20 21 22 23 24 25 26 27 28 29 30 31 32 33 34 35 36 37 38 39 40 41 42 43 44 45 46 47 48 49 50

915
ASUS43 KFSD 232210
RWRSD

WEATHER ROUNDUP FOR SOUTH DAKOTA
NATIONAL WEATHER SERVICE SIOUX FALLS SD
500 PM CDT SAT JUL 23 2016

NOTE: "FAIR" INDICATES FEW OR NO CLOUDS BELOW 12,000 FEET WITH NO
SIGNIFICANT WEATHER AND/OR OBSTRUCTIONS TO VISIBILITY.


SDZ001>005-009-010-012>017-232300-
NORTHWEST AND NORTH CENTRAL SOUTH DAKOTA

CITY           SKY/WX    TMP DP  RH WIND       PRES   REMARKS
BUFFALO          N/A     88  36  15 NW25G32   29.88S
FAITH            N/A     89  41  18 N16G30    29.90R
MOBRIDGE       MOSUNNY   86  64  47 NW16      29.80R
$$

SDZ012>016-024>037-041>051-057-063-072>074-232300-
SOUTHWEST AND SOUTH CENTRAL SOUTH DAKOTA

CITY           SKY/WX    TMP DP  RH WIND       PRES   REMARKS
RAPID CTY ARPT SUNNY     89  42  19 N17       29.94S
PIERRE         SUNNY     92  65  40 NW25      29.78R
CUSTER         SUNNY     85  29  13 W10G20    30.09S
ELLSWORTH AFB  SUNNY     90  43  19 N23G29    29.93
PHILIP         SUNNY     93  49  22 N23G30    29.85S
PINE RIDGE     SUNNY     92  48  22 NE10      29.94S
WINNER         FAIR     100  60  26 NW17G30   29.79R HX 100
$$

SDZ004>011-016>023-039-040-232300-
NORTHEAST SOUTH DAKOTA

CITY           SKY/WX    TMP DP  RH WIND       PRES   REMARKS
ABERDEEN       PTSUNNY   88  74  63 NE7       29.72S HX  96
WATERTOWN      SUNNY     90  74  59 S8        29.75F HX  99
BROOKINGS      SUNNY     89  75  63 S12       29.75F HX  99
SISSETON         N/A     86  77  74 S13       29.70F HX  97
$$

SDZ017-020-022-023-036>040-048>070-232300-
SOUTHEAST SOUTH DAKOTA

CITY           SKY/WX    TMP DP  RH WIND       PRES   REMARKS
SIOUX FALLS    MOSUNNY   91  73  55 SW8       29.74F HX  99
HURON          SUNNY     93  71  48 S9        29.69F HX 100
CHAMBERLAIN    SUNNY     97  69  40 NW21G26   29.75R HX 102
MITCHELL       SUNNY     95  71  45 SW5       29.71F HX 102
YANKTON        CLOUDY    93  72  49 S14       29.71F HX 100
$$

ABBREVIATIONS USED IN REMARKS
   TC - TEMPERATURE IN CELSIUS
  WCI - WIND CHILL INDEX
   HX - HEAT INDEX
  VSB - VISIBILITY





USA.gov is the U.S. government's official web portal to all federal, state and local government web resources and services.